{"data":{"norad_id":65166,"intl_designator":"2025-174C","name":"HULIANWANG DIGUI-60","alt_names":[],"object_type":"PAYLOAD","status":"ACTIVE","operator":null,"country":"PRC","launch_date":"2025-08-13","launch_site_code":"WSC","launch_vehicle":null,"mission":null,"orbit_class":"UNKNOWN","rcs_meters":null,"size_class":null,"mass_kg":null,"dimensions":null,"purposes":[],"wikipedia_slug":null,"has_3d_model":false,"image_url":null,"decayed_at":null,"tle_current":{"epoch":"2026-09-21T21:47:54.971232Z","epoch_age_seconds":43134,"freshness":"FRESH","line1":"1 65166U 25174C   26264.90827513  .00000059  00000+0  10288-3 0  9993","line2":"2 65166  86.4985 219.3412 0002213  74.3290 285.8088 13.24399614 53594","mean_motion":13.24399614,"eccentricity":0.0002213,"inclination_deg":86.4985,"raan_deg":219.3412,"arg_perigee_deg":74.329,"mean_anomaly_deg":285.8088,"bstar":0.00010288,"rev_number":5359,"period_min":108.72851251073,"perigee_km":1166.2916849655,"apogee_km":1169.6315882221,"semimajor_km":7546.0986365938,"source":"CELESTRAK","updated_at":"2026-09-22T09:00:30.163427Z"}}}